• In Kazakhstan
  • List of Countries
  • For 7 days
  • Water Temperature
  • Satellite Maps
  • Weather Map
  • News
  • Weather Widgets
  • user-avatar
    Login

    Hourly Weather Karczunek

    Today, 17 July, Wednesday

    Time Temperature Precipitation Wind Pressure Humidity
    00:00 +9°C° 0 mm 2 mps 721 mmHg 91%
    01:00 +9°C° 0 mm 2 mps 721 mmHg 92%
    02:00 +9°C° 0 mm 2 mps 721 mmHg 93%
    03:00 +9°C° 0 mm 2 mps 721 mmHg 93%
    04:00 +9°C° 0 mm 2 mps 720 mmHg 94%
    05:00 +10°C° 0 mm 3 mps 720 mmHg 90%
    06:00 +12°C° 0 mm 4 mps 720 mmHg 86%
    07:00 +13°C° 0 mm 4 mps 720 mmHg 82%
    08:00 +14°C° 0.2 mm 5 mps 720 mmHg 78%
    09:00 +15°C° 0.2 mm 5 mps 721 mmHg 75%
    10:00 +16°C° 0.2 mm 6 mps 721 mmHg 71%
    11:00 +17°C° 0.3 mm 6 mps 721 mmHg 68%
    12:00 +18°C° 0.3 mm 7 mps 720 mmHg 65%
    13:00 +18°C° 0.3 mm 7 mps 720 mmHg 62%
    14:00 +18°C° 0.2 mm 7 mps 720 mmHg 63%
    15:00 +19°C° 0.2 mm 6 mps 721 mmHg 63%
    16:00 +19°C° 0.2 mm 6 mps 721 mmHg 63%
    17:00 +17°C° 0.1 mm 5 mps 721 mmHg 69%
    18:00 +15°C° 0.1 mm 4 mps 720 mmHg 75%
    19:00 +14°C° 0.1 mm 3 mps 720 mmHg 81%
    20:00 +13°C° 0 mm 3 mps 721 mmHg 84%
    21:00 +13°C° 0 mm 2 mps 721 mmHg 87%
    22:00 +12°C° 0 mm 2 mps 721 mmHg 90%
    23:00 +12°C° 0 mm 2 mps 721 mmHg 91%

    Tomorrow, 18 July, Thursday

    Time Temperature Precipitation Wind Pressure Humidity
    00:00 +10°C° 0 mm 2 mps 721 mmHg 92%
    01:00 +10°C° 0 mm 2 mps 721 mmHg 93%
    02:00 +9°C° 0 mm 2 mps 721 mmHg 93%
    03:00 +9°C° 0 mm 2 mps 721 mmHg 93%
    04:00 +10°C° 0 mm 1 mps 721 mmHg 94%
    05:00 +12°C° 0 mm 2 mps 722 mmHg 89%
    06:00 +13°C° 0 mm 2 mps 722 mmHg 84%
    07:00 +15°C° 0 mm 2 mps 722 mmHg 78%
    08:00 +16°C° 0.1 mm 2 mps 722 mmHg 74%
    09:00 +18°C° 0.1 mm 2 mps 723 mmHg 69%
    10:00 +19°C° 0.1 mm 2 mps 723 mmHg 64%
    11:00 +20°C° 0.1 mm 2 mps 723 mmHg 61%
    12:00 +20°C° 0.1 mm 2 mps 723 mmHg 58%
    13:00 +21°C° 0.1 mm 2 mps 722 mmHg 54%
    14:00 +21°C° 0 mm 2 mps 722 mmHg 55%
    15:00 +22°C° 0 mm 1 mps 722 mmHg 56%
    16:00 +22°C° 0 mm 1 mps 722 mmHg 56%
    17:00 +21°C° 0 mm 1 mps 722 mmHg 62%
    18:00 +19°C° 0 mm 1 mps 722 mmHg 68%
    19:00 +16°C° 0 mm 0 mps 722 mmHg 74%
    20:00 +16°C° 0 mm 1 mps 722 mmHg 78%
    21:00 +15°C° 0 mm 1 mps 723 mmHg 82%
    22:00 +14°C° 0 mm 1 mps 723 mmHg 86%
    23:00 +13°C° 0 mm 1 mps 723 mmHg 88%

    Day after tomorrow, 19 July, Friday

    Time Temperature Precipitation Wind Pressure Humidity
    00:00 +13°C° 0 mm 1 mps 723 mmHg 89%
    01:00 +13°C° 0 mm 1 mps 723 mmHg 90%
    02:00 +12°C° 0 mm 1 mps 723 mmHg 90%
    03:00 +12°C° 0 mm 1 mps 723 mmHg 91%
    04:00 +12°C° 0 mm 1 mps 723 mmHg 91%
    05:00 +14°C° 0 mm 1 mps 723 mmHg 85%
    06:00 +16°C° 0 mm 1 mps 723 mmHg 79%
    07:00 +19°C° 0 mm 1 mps 724 mmHg 73%
    08:00 +21°C° 0 mm 1 mps 724 mmHg 66%
    09:00 +23°C° 0 mm 1 mps 724 mmHg 59%
    10:00 +24°C° 0 mm 1 mps 724 mmHg 53%
    11:00 +25°C° 0 mm 1 mps 724 mmHg 51%
    12:00 +25°C° 0 mm 1 mps 724 mmHg 50%
    13:00 +26°C° 0 mm 1 mps 724 mmHg 49%
    14:00 +25°C° 0.2 mm 1 mps 724 mmHg 54%
    15:00 +25°C° 0.2 mm 1 mps 723 mmHg 59%
    16:00 +24°C° 0.2 mm 1 mps 723 mmHg 64%
    17:00 +23°C° 0.2 mm 1 mps 723 mmHg 69%
    18:00 +21°C° 0.2 mm 1 mps 723 mmHg 75%
    19:00 +20°C° 0.2 mm 1 mps 723 mmHg 80%
    20:00 +19°C° 0 mm 1 mps 723 mmHg 82%
    21:00 +17°C° 0 mm 2 mps 724 mmHg 84%
    22:00 +16°C° 0 mm 2 mps 724 mmHg 85%
    23:00 +16°C° 0 mm 2 mps 724 mmHg 87%

    20 July, Saturday

    Time Temperature Precipitation Wind Pressure Humidity
    00:00 +15°C° 0 mm 1 mps 724 mmHg 88%
    01:00 +15°C° 0 mm 1 mps 724 mmHg 89%
    02:00 +15°C° 0 mm 1 mps 724 mmHg 90%
    03:00 +14°C° 0 mm 1 mps 724 mmHg 90%
    04:00 +14°C° 0 mm 1 mps 724 mmHg 90%
    05:00 +16°C° 0 mm 1 mps 724 mmHg 87%
    06:00 +19°C° 0 mm 1 mps 724 mmHg 83%
    07:00 +20°C° 0 mm 1 mps 725 mmHg 79%
    08:00 +22°C° 0.1 mm 1 mps 725 mmHg 72%
    09:00 +23°C° 0.1 mm 2 mps 725 mmHg 66%
    10:00 +25°C° 0.1 mm 2 mps 725 mmHg 59%
    11:00 +26°C° 0.1 mm 2 mps 725 mmHg 57%
    12:00 +26°C° 0.1 mm 2 mps 725 mmHg 55%
    13:00 +27°C° 0.1 mm 3 mps 725 mmHg 52%
    14:00 +27°C° 0 mm 3 mps 725 mmHg 54%
    15:00 +27°C° 0 mm 3 mps 725 mmHg 56%
    16:00 +27°C° 0 mm 3 mps 725 mmHg 58%
    17:00 +25°C° 0.1 mm 2 mps 725 mmHg 65%
    18:00 +23°C° 0.1 mm 2 mps 725 mmHg 73%
    19:00 +21°C° 0.1 mm 1 mps 725 mmHg 80%
    20:00 +21°C° 0 mm 1 mps 725 mmHg 83%
    21:00 +20°C° 0 mm 1 mps 725 mmHg 85%
    22:00 +19°C° 0 mm 1 mps 725 mmHg 88%
    23:00 +18°C° 0 mm 1 mps 725 mmHg 89%

    21 July, Sunday

    Time Temperature Precipitation Wind Pressure Humidity
    00:00 +18°C° 0 mm 1 mps 725 mmHg 90%
    01:00 +16°C° 0 mm 1 mps 725 mmHg 91%
    02:00 +16°C° 0 mm 1 mps 725 mmHg 91%
    03:00 +16°C° 0 mm 1 mps 725 mmHg 91%
    04:00 +16°C° 0 mm 1 mps 725 mmHg 92%
    05:00 +19°C° 0 mm 1 mps 725 mmHg 87%
    06:00 +20°C° 0 mm 2 mps 725 mmHg 83%
    07:00 +21°C° 0 mm 2 mps 726 mmHg 78%
    08:00 +24°C° 0.1 mm 2 mps 726 mmHg 74%
    09:00 +25°C° 0.1 mm 2 mps 726 mmHg 70%
    10:00 +26°C° 0.1 mm 2 mps 726 mmHg 66%
    11:00 +27°C° 0.4 mm 3 mps 726 mmHg 65%
    12:00 +27°C° 0.4 mm 3 mps 726 mmHg 63%
    13:00 +27°C° 0.4 mm 3 mps 726 mmHg 62%
    14:00 +27°C° 0.4 mm 2 mps 726 mmHg 66%
    15:00 +26°C° 0.4 mm 2 mps 726 mmHg 70%
    16:00 +25°C° 0.4 mm 1 mps 726 mmHg 73%
    17:00 +24°C° 0.2 mm 1 mps 725 mmHg 77%
    18:00 +23°C° 0.2 mm 2 mps 725 mmHg 80%
    19:00 +21°C° 0.2 mm 2 mps 725 mmHg 84%
    20:00 +21°C° 0.1 mm 2 mps 725 mmHg 85%
    21:00 +20°C° 0.1 mm 2 mps 725 mmHg 86%
    22:00 +19°C° 0.1 mm 2 mps 725 mmHg 88%
    23:00 +18°C° 0.3 mm 2 mps 725 mmHg 88%

    22 July, Monday

    Time Temperature Precipitation Wind Pressure Humidity
    00:00 +18°C° 0.3 mm 2 mps 725 mmHg 89%
    01:00 +18°C° 0.3 mm 1 mps 725 mmHg 90%
    02:00 +17°C° 0.1 mm 2 mps 725 mmHg 91%
    03:00 +17°C° 0.1 mm 2 mps 725 mmHg 93%
    04:00 +17°C° 0.1 mm 2 mps 725 mmHg 94%
    05:00 +18°C° 0 mm 3 mps 726 mmHg 92%
    06:00 +19°C° 0 mm 3 mps 726 mmHg 91%
    07:00 +19°C° 0 mm 4 mps 726 mmHg 89%
    08:00 +21°C° 0.7 mm 4 mps 727 mmHg 86%
    09:00 +22°C° 0.7 mm 4 mps 727 mmHg 82%
    10:00 +23°C° 0.7 mm 5 mps 727 mmHg 78%
    11:00 +23°C° 0.8 mm 4 mps 727 mmHg 75%
    12:00 +25°C° 0.8 mm 4 mps 727 mmHg 72%
    13:00 +25°C° 0.8 mm 4 mps 727 mmHg 69%
    14:00 +25°C° 0.4 mm 4 mps 727 mmHg 69%
    15:00 +25°C° 0.4 mm 4 mps 727 mmHg 68%
    16:00 +25°C° 0.4 mm 3 mps 727 mmHg 68%
    17:00 +24°C° 0.1 mm 3 mps 726 mmHg 72%
    18:00 +21°C° 0.1 mm 2 mps 726 mmHg 76%
    19:00 +20°C° 0.1 mm 2 mps 726 mmHg 81%
    20:00 +20°C° 0 mm 1 mps 726 mmHg 83%
    21:00 +19°C° 0 mm 1 mps 726 mmHg 86%
    22:00 +18°C° 0 mm 1 mps 726 mmHg 89%
    23:00 +16°C° 0 mm 1 mps 726 mmHg 90%
    Show more